| time (UTC) | temp F | wind direction | speed MPH | gust MPH | rain 1hr in | rain 24hr in | rain mn in | humidity % | barometer mb |
| 20260902000017 | 70 | 226 | 15.0 | 27.0 | 0.00 | 0.00 | 0.00 | 20 | 1005.1 |
| 20260901234514 | 71 | 229 | 16.0 | 30.0 | 0.00 | 0.00 | 0.00 | 19 | 1005.1 |
| 20260901233026 | 71 | 230 | 19.0 | 28.0 | 0.00 | 0.00 | 0.00 | 18 | 1004.9 |
| 20260901231512 | 72 | 221 | 16.0 | 27.0 | 0.00 | 0.00 | 0.00 | 19 | 1004.7 |
| 20260901230011 | 71 | 221 | 16.0 | 24.0 | 0.00 | 0.00 | 0.00 | 20 | 1004.9 |
| 20260901224529 | 71 | 266 | 15.0 | 27.0 | 0.00 | 0.00 | 0.00 | 23 | 1004.8 |
| 20260901223010 | 71 | 246 | 13.0 | 22.0 | 0.00 | 0.00 | 0.00 | 25 | 1005.0 |
| 20260901221508 | 72 | 257 | 11.0 | 19.0 | 0.00 | 0.00 | 0.00 | 24 | 1005.0 |
| 20260901220008 | 73 | 230 | 13.0 | 20.0 | 0.00 | 0.00 | 0.00 | 20 | 1004.6 |
| 20260901214506 | 73 | 236 | 12.0 | 19.0 | 0.00 | 0.00 | 0.00 | 22 | 1004.9 |
| 20260901213006 | 73 | 276 | 14.0 | 26.0 | 0.00 | 0.00 | 0.00 | 23 | 1004.9 |
| 20260901211511 | 74 | 263 | 12.0 | 23.0 | 0.00 | 0.00 | 0.00 | 22 | 1005.1 |
| 20260901210004 | 73 | 242 | 13.0 | 24.0 | 0.00 | 0.00 | 0.00 | 21 | 1005.0 |
| 20260901204503 | 73 | 235 | 16.0 | 22.0 | 0.00 | 0.00 | 0.00 | 21 | 1005.2 |
| 20260901203002 | 74 | 253 | 10.0 | 25.0 | 0.00 | 0.00 | 0.00 | 21 | 1005.2 |
| 20260901201600 | 73 | 257 | 9.0 | 17.0 | 0.00 | 0.00 | 0.00 | 25 | 1005.4 |
| 20260901200109 | 73 | 218 | 1.0 | 15.0 | 0.00 | 0.00 | 0.00 | 23 | 1005.4 |
| 20260901194604 | 73 | 229 | 11.0 | 17.0 | 0.00 | 0.00 | 0.00 | 23 | 1005.4 |
| 20260901193110 | 73 | 233 | 11.0 | 16.0 | 0.00 | 0.00 | 0.00 | 23 | 1005.6 |
| 20260901191558 | 73 | 254 | 13.0 | 19.0 | 0.00 | 0.00 | 0.00 | 23 | 1005.9 |
| 20260901190109 | 73 | 221 | 6.0 | 12.0 | 0.00 | 0.00 | 0.00 | 26 | 1005.9 |
| 20260901184555 | 74 | 102 | 1.0 | 10.0 | 0.00 | 0.00 | 0.00 | 29 | 1006.0 |
| 20260901183055 | 74 | 184 | 9.0 | 15.0 | 0.00 | 0.00 | 0.00 | 26 | 1006.0 |
| 20260901181559 | 73 | 156 | 8.0 | 13.0 | 0.00 | 0.00 | 0.00 | 26 | 1006.0 |
| 20260901180051 | 72 | 288 | 1.0 | 6.0 | 0.00 | 0.00 | 0.00 | 27 | 1006.2 |
| 20260901174550 | 71 | 120 | 1.0 | 10.0 | 0.00 | 0.00 | 0.00 | 32 | 1006.1 |
| 20260901173055 | 71 | 105 | 0.0 | 8.0 | 0.00 | 0.00 | 0.00 | 31 | 1006.1 |
| 20260901171558 | 70 | 98 | 1.0 | 8.0 | 0.00 | 0.00 | 0.00 | 32 | 1006.1 |
| 20260901170045 | 70 | 100 | 0.0 | 4.0 | 0.00 | 0.00 | 0.00 | 30 | 1006.0 |
| 20260901164551 | 69 | 164 | 2.0 | 5.0 | 0.00 | 0.00 | 0.00 | 30 | 1006.3 |
| 20260901163040 | 68 | 149 | 1.0 | 6.0 | 0.00 | 0.00 | 0.00 | 32 | 1006.2 |
| 20260901161543 | 66 | 104 | 1.0 | 7.0 | 0.00 | 0.00 | 0.00 | 34 | 1006.3 |
| 20260901160036 | 62 | 162 | 0.0 | 2.0 | 0.00 | 0.00 | 0.00 | 52 | 1006.3 |
| 20260901154535 | 65 | 103 | 0.0 | 3.0 | 0.00 | 0.00 | 0.00 | 38 | 1006.4 |
| 20260901153033 | 66 | 150 | 0.0 | 4.0 | 0.00 | 0.00 | 0.00 | 34 | 1006.7 |
| 20260901151539 | 65 | 143 | 0.0 | 5.0 | 0.00 | 0.00 | 0.00 | 33 | 1006.5 |
| 20260901150032 | 63 | 122 | 0.0 | 3.0 | 0.00 | 0.00 | 0.00 | 33 | 1006.5 |
| 20260901144528 | 61 | 112 | 0.0 | 5.0 | 0.00 | 0.00 | 0.00 | 39 | 1006.6 |
| 20260901143029 | 58 | 129 | 0.0 | 4.0 | 0.00 | 0.00 | 0.00 | 40 | 1006.5 |
| 20260901141528 | 59 | 283 | 0.0 | 0.0 | 0.00 | 0.00 | 0.00 | 37 | 1006.4 |
| 20260901140031 | 58 | 302 | 0.0 | 0.0 | 0.00 | 0.00 | 0.00 | 36 | 1006.5 |
| 20260901134533 | 58 | 302 | 0.0 | 3.0 | 0.00 | 0.00 | 0.00 | 36 | 1006.3 |
| 20260901133025 | 58 | 154 | 0.0 | 1.0 | 0.00 | 0.00 | 0.00 | 36 | 1006.1 |
| 20260901131519 | 59 | 151 | 0.0 | 0.0 | 0.00 | 0.00 | 0.00 | 35 | 1006.0 |
| 20260901130014 | 61 | 136 | 4.0 | 15.0 | 0.00 | 0.00 | 0.00 | 31 | 1006.0 |
| 20260901124514 | 62 | 228 | 12.0 | 17.0 | 0.00 | 0.00 | 0.00 | 31 | 1005.7 |
| 20260901123019 | 61 | 238 | 9.0 | 18.0 | 0.00 | 0.00 | 0.00 | 34 | 1005.8 |
| 20260901121510 | 61 | 251 | 8.0 | 16.0 | 0.00 | 0.00 | 0.00 | 35 | 1005.6 |
| 20260901120008 | 62 | 234 | 10.0 | 22.0 | 0.00 | 0.00 | 0.00 | 37 | 1005.6 |
| 20260901114506 | 62 | 250 | 13.0 | 22.0 | 0.00 | 0.00 | 0.00 | 36 | 1005.7 |
| 20260901113008 | 62 | 245 | 10.0 | 24.0 | 0.00 | 0.00 | 0.00 | 38 | 1005.6 |
| 20260901111503 | 62 | 236 | 10.0 | 22.0 | 0.00 | 0.00 | 0.00 | 39 | 1005.5 |
| 20260901110111 | 63 | 210 | 15.0 | 23.0 | 0.00 | 0.00 | 0.00 | 39 | 1005.5 |
| 20260901104601 | 63 | 275 | 8.0 | 19.0 | 0.00 | 0.00 | 0.00 | 39 | 1005.4 |
| 20260901103103 | 63 | 216 | 11.0 | 20.0 | 0.00 | 0.00 | 0.00 | 39 | 1005.4 |
| 20260901101555 | 63 | 217 | 12.0 | 21.0 | 0.00 | 0.00 | 0.00 | 39 | 1005.3 |
| 20260901100104 | 63 | 226 | 12.0 | 22.0 | 0.00 | 0.00 | 0.00 | 41 | 1005.3 |
| 20260901094556 | 63 | 239 | 10.0 | 18.0 | 0.00 | 0.00 | 0.00 | 39 | 1005.7 |
| 20260901093059 | 63 | 244 | 7.0 | 21.0 | 0.00 | 0.00 | 0.00 | 39 | 1005.6 |
| 20260901091553 | 63 | 257 | 3.0 | 11.0 | 0.00 | 0.00 | 0.00 | 38 | 1005.8 |
| 20260901090044 | 64 | 221 | 7.0 | 14.0 | 0.00 | 0.00 | 0.00 | 36 | 1005.7 |
| 20260901084542 | 64 | 256 | 11.0 | 16.0 | 0.00 | 0.00 | 0.00 | 35 | 1005.6 |
| 20260901083040 | 63 | 205 | 3.0 | 7.0 | 0.00 | 0.00 | 0.00 | 37 | 1005.9 |
| 20260901081538 | 64 | 264 | 3.0 | 10.0 | 0.00 | 0.00 | 0.00 | 36 | 1005.8 |
| 20260901080037 | 64 | 264 | 0.0 | 3.0 | 0.00 | 0.00 | 0.00 | 35 | 1005.8 |
| 20260901074535 | 64 | 338 | 0.0 | 1.0 | 0.00 | 0.00 | 0.00 | 36 | 1005.8 |
| 20260901073038 | 64 | 338 | 0.0 | 1.0 | 0.00 | 0.00 | 0.00 | 38 | 1005.8 |
| 20260901071533 | 64 | 338 | 0.0 | 2.0 | 0.00 | 0.00 | 0.00 | 37 | 1005.8 |
| 20260901070029 | 65 | 48 | 0.0 | 3.0 | 0.00 | 0.00 | 0.00 | 38 | 1005.8 |
| 20260901064536 | 66 | 282 | 0.0 | 8.0 | 0.00 | 0.00 | 0.00 | 36 | 1005.8 |
| 20260901063034 | 66 | 235 | 8.0 | 15.0 | 0.00 | 0.00 | 0.00 | 35 | 1005.8 |
| 20260901061528 | 66 | 223 | 11.0 | 17.0 | 0.00 | 0.00 | 0.00 | 36 | 1005.5 |
| 20260901060027 | 65 | 342 | 0.0 | 4.0 | 0.00 | 0.00 | 0.00 | 38 | 1005.9 |
| 20260901054528 | 67 | 70 | 3.0 | 12.0 | 0.00 | 0.00 | 0.00 | 37 | 1006.0 |
| 20260901053026 | 67 | 252 | 10.0 | 21.0 | 0.00 | 0.00 | 0.00 | 36 | 1005.6 |
| 20260901051528 | 67 | 243 | 11.0 | 21.0 | 0.00 | 0.00 | 0.00 | 37 | 1005.6 |
| 20260901050025 | 67 | 238 | 12.0 | 18.0 | 0.00 | 0.00 | 0.00 | 37 | 1005.5 |
| 20260901044526 | 67 | 274 | 5.0 | 11.0 | 0.00 | 0.00 | 0.00 | 39 | 1005.8 |
| 20260901043025 | 67 | 293 | 4.0 | 14.0 | 0.00 | 0.00 | 0.00 | 40 | 1005.6 |
| 20260901041526 | 67 | 288 | 6.0 | 14.0 | 0.00 | 0.00 | 0.00 | 40 | 1005.6 |
| 20260901040027 | 67 | 62 | 8.0 | 16.0 | 0.00 | 0.00 | 0.00 | 40 | 1005.2 |
| 20260901034522 | 68 | 219 | 7.0 | 14.0 | 0.00 | 0.00 | 0.00 | 38 | 1005.0 |
| 20260901033022 | 68 | 1 | 9.0 | 17.0 | 0.00 | 0.00 | 0.00 | 38 | 1005.1 |
| 20260901031521 | 69 | 311 | 5.0 | 13.0 | 0.00 | 0.00 | 0.00 | 37 | 1005.1 |
| 20260901030020 | 70 | 252 | 12.0 | 24.0 | 0.00 | 0.00 | 0.00 | 37 | 1004.5 |
| 20260901024527 | 70 | 257 | 13.0 | 27.0 | 0.00 | 0.00 | 0.00 | 37 | 1004.4 |
| 20260901023019 | 71 | 237 | 18.0 | 26.0 | 0.00 | 0.00 | 0.00 | 36 | 1004.2 |
| 20260901021518 | 72 | 272 | 14.0 | 29.0 | 0.00 | 0.00 | 0.00 | 35 | 1004.3 |
| 20260901020017 | 73 | 277 | 14.0 | 29.0 | 0.00 | 0.00 | 0.00 | 34 | 1004.0 |
| 20260901014517 | 74 | 255 | 16.0 | 24.0 | 0.00 | 0.00 | 0.00 | 33 | 1004.1 |
| 20260901013021 | 75 | 238 | 13.0 | 25.0 | 0.00 | 0.00 | 0.00 | 32 | 1003.9 |
| 20260901011519 | 76 | 221 | 14.0 | 22.0 | 0.00 | 0.00 | 0.00 | 31 | 1003.9 |
| 20260901010015 | 77 | 261 | 14.0 | 21.0 | 0.00 | 0.00 | 0.00 | 30 | 1003.9 |
| 20260901004529 | 78 | 221 | 18.0 | 24.0 | 0.00 | 0.00 | 0.00 | 29 | 1003.7 |
| 20260901003018 | 79 | 245 | 16.0 | 21.0 | 0.00 | 0.00 | 0.00 | 28 | 1003.8 |
| 20260901001523 | 80 | 244 | 15.0 | 21.0 | 0.00 | 0.00 | 0.00 | 27 | 1003.9 |